Armant, Egypt

4:46 PM EET on February 25, 2018 (GMT +0200)
Armant

Weather History for 62405 - December, 2013

Change the Weather History Date:

Sunday, December 15, 2013

  Actual Average Record
Temperature  
Mean Temperature 56 °F -  
Max Temperature 66 °F 71 °F - ()
Min Temperature 47 °F 45 °F - ()
Degree Days  
Heating Degree Days 8    
Growing Degree Days 6 (Base 50)    
Moisture  
Dew Point 43 °F    
Average Humidity 57    
Maximum Humidity 82    
Minimum Humidity 32    
Precipitation  
Precipitation 0.00 in 0.00 in - ()
Sea Level Pressure  
Sea Level Pressure 30.26 in    
Wind  
Wind Speed 1 mph ()    
Max Wind Speed 7 mph    
Max Gust Speed -    
Visibility 6.0 miles    
Events      
T = Trace of Precipitation, MM = Missing Value Source: Averaged Metar Reports

Daily Weather History Graph

Daily Weather History Graph

Search for Another Location

Airport or City:

Trip Planner

Search our weather history database for the weather conditions in past years. The results will help you decide how hot, cold, wet, or windy it might be!

Date:

Astronomy

Dec. 15, 2013 Rise Set
Actual Time 6:27 AM EET 5:00 PM EET
Civil Twilight 6:02 AM EET 5:26 PM EET
Nautical Twilight 5:34 AM EET 5:54 PM EET
Astronomical Twilight 5:05 AM EET 6:22 PM EET
Moon 3:43 PM EET (12/15) 4:33 AM EET (12/15)
Length of Visible Light 11h 23m
Length of Day
10h 32m
Waxing Gibbous, 96% of the Moon is Illuminated
Dec 15
Waxing Gibbous
Dec 17
Full
Dec 25
Last Quarter
Jan 1
New
Jan 8
First Quarter

Hourly Weather History & Observations

Time (EET) Temp. Dew Point Humidity Pressure Visibility Wind Dir Wind Speed Gust Speed Precip Events Conditions
12:00 AM 53.6 °F 42.8 °F 67% 30.30 in - SSE 2.3 mph - N/A   Clear
1:00 AM 51.8 °F 42.8 °F 71% 30.30 in - Calm Calm - N/A   Clear
2:00 AM 52 °F 43 °F 63% 30.32 in 6 mi Calm Calm - -  
3:00 AM 51.8 °F 44.6 °F 76% 30.27 in - Calm Calm - N/A   Clear
4:00 AM 50.0 °F 44.6 °F 82% 30.27 in - Calm Calm - N/A   Clear
5:00 AM 49 °F 44 °F 78% 30.30 in 6 mi Calm Calm - -  
8:00 AM 51 °F 44 °F 69% 30.32 in 6 mi SE 2.3 mph - -  
9:00 AM 57.2 °F 46.4 °F 67% 30.33 in - Calm Calm - N/A   Clear
10:00 AM 60.8 °F 46.4 °F 59% 30.30 in - NNW 2.3 mph - N/A   Clear
11:00 AM 63 °F 42 °F 35% 30.30 in 6 mi NW 6.9 mph - -  
11:00 AM 62.6 °F 46.4 °F 55% 30.30 in - NW 6.9 mph - N/A   Clear
12:00 PM 64.4 °F 42.8 °F 45% 30.27 in - North 4.6 mph - N/A   Clear
1:00 PM 64.4 °F 42.8 °F 45% 30.24 in - NNW 6.9 mph - N/A   Clear
2:00 PM 65 °F 42 °F 32% 30.23 in 6 mi North 2.3 mph - -  
2:00 PM 66.2 °F 42.8 °F 43% 30.21 in - North 2.3 mph - N/A   Clear
3:00 PM 64.4 °F 42.8 °F 45% 30.21 in - Calm Calm - N/A   Clear
4:00 PM 64.4 °F 42.8 °F 45% 30.21 in - Calm Calm - N/A   Clear
5:00 PM 62 °F 45 °F 43% 30.22 in 6 mi Calm Calm - -  
5:00 PM 62.6 °F 44.6 °F 52% 30.21 in - Calm Calm - N/A   Clear
6:00 PM 59.0 °F 44.6 °F 59% 30.21 in - Calm Calm - N/A   Clear
7:00 PM 57.2 °F 44.6 °F 63% 30.24 in - WSW 2.3 mph - N/A   Clear
8:00 PM 55 °F 41 °F 47% 30.26 in 6 mi South 2.3 mph - -  
8:00 PM 55.4 °F 41.0 °F 58% 30.24 in - South 2.3 mph - N/A   Clear
9:00 PM 53.6 °F 39.2 °F 58% 30.24 in - SSE 2.3 mph - N/A   Clear
10:00 PM 53.6 °F 41.0 °F 62% 30.24 in - SE 2.3 mph - N/A   Clear
11:00 PM 51 °F 40 °F 57% 30.27 in 6 mi Calm Calm - -  
11:00 PM 51.8 °F 41.0 °F 67% 30.24 in - Calm Calm - N/A   Clear